This demonstration page uses our WeatherBlox Daily Observations layout. Learn more.

38.88101, -77.10428

Hourly Observations for January 17, 2016

Temp ( °F °C ) Dew Point ( °F °C ) Humidity (%) Winds ( mph kmh ) Pressure ( in mb ) Visibility ( mi km ) Precip ( " mm )
12:52 am 00:52 Cloudy 37 3 28 -2 70 70 NNW 7 11 29.88 1012 10 16.09344 0 0
1:52 am 01:52 Cloudy 37 3 28 -2 70 70 NNW 5 7 29.88 1012 10 16.09344 0 0
2:52 am 02:52 Cloudy 37 3 27 -3 65 65 NNW 6 9 29.88 1012 10 16.09344 0 0
3:52 am 03:52 Cloudy 37 3 27 -3 65 65 N 5 7 29.88 1012 10 16.09344 0 0
4:52 am 04:52 Cloudy 37 3 25 -4 60 60 N 10 17 29.85 1011 10 16.09344 0 0
5:52 am 05:52 Cloudy 37 3 27 -3 65 65 N 9 15 29.88 1012 10 16.09344 0 0
6:52 am 06:52 Cloudy 37 3 27 -3 65 65 NNE 10 17 29.88 1012 10 16.09344 0 0
7:52 am 07:52 Cloudy 37 3 27 -3 65 65 N 7 11 29.88 1012 10 16.09344 0 0
8:52 am 08:52 Cloudy 37 3 27 -3 65 65 E 7 11 29.91 1013 10 16.09344 0 0
9:52 am 09:52 Cloudy 37 3 27 -3 65 65 NE 6 9 29.88 1012 10 16.09344 0 0
10:52 am 10:52 Cloudy with Light Snow 36 2 27 -3 70 70 SE 7 11 29.91 1013 10 16.09344 0.001 0.001
11:08 am 11:08 Cloudy with Light Snow 36 2 28 -2 75 75 SSE 6 9 29.88 1012 9 14.484096 0 0
11:16 am 11:16 Cloudy with Light Snow 36 2 28 -2 75 75 N 6 9 29.88 1012 6 9.656064 0 0
11:23 am 11:23 Cloudy with Light Snow 36 2 28 -2 75 75 SSE 8 13 29.88 1012 3 4.828032 0.001 0.001
11:32 am 11:32 Cloudy with Light Snow 34 1 30 -1 87 87 SSE 7 11 29.88 1012 2.5 4.02336 0 0
11:38 am 11:38 Cloudy with Light Snow 34 1 30 -1 87 87 SSE 6 9 29.88 1012 1.75 2.816352 0 0
11:44 am 11:44 Cloudy with Light Snow 34 1 30 -1 87 87 SSE 6 9 29.88 1012 1.5 2.414016 0 0
11:52 am 11:52 Cloudy with Light Snow 34 1 30 -1 87 87 SSE 7 11 29.88 1012 1.75 2.816352 0.001 0.001
12:21 pm 12:21 Cloudy with Light Snow 34 1 30 -1 87 87 SSE 5 7 29.85 1011 1.5 2.414016 0.001 0.001
12:42 pm 12:42 Cloudy with Light Snow 34 1 30 -1 87 87 Calm 29.85 1011 0.75 1.207008 0 0
12:52 pm 12:52 Cloudy with Snow 34 1 30 -1 87 87 Calm 29.85 1011 0.5 0.804672 0.02 0.508
1:20 pm 13:20 Cloudy with Light Snow 34 1 30 -1 87 87 Calm 29.83 1010 0.75 1.207008 0 0
1:27 pm 13:27 Cloudy with Light Snow 34 1 30 -1 87 87 Calm 29.83 1010 0.75 1.207008 0.02 0.508
1:52 pm 13:52 Cloudy with Light Snow 34 1 30 -1 87 87 NNE 3 6 29.8 1009 1 1.609344 0.03 0.762
2:12 pm 14:12 Cloudy with Light Snow 34 1 30 -1 87 87 NNE 3 6 29.8 1009 1.5 2.414016 0 0
2:18 pm 14:18 Cloudy with Light Snow 34 1 30 -1 87 87 NNE 5 7 29.8 1009 3 4.828032 0 0
2:26 pm 14:26 Cloudy with Light Snow 34 1 30 -1 87 87 NE 3 6 29.8 1009 4 6.437376 0.001 0.001
2:44 pm 14:44 Cloudy with Light Snow 36 2 32 0 87 87 NNW 7 11 29.8 1009 5 8.04672 0 0
2:52 pm 14:52 Cloudy with Light Snow 36 2 30 -1 81 81 N 7 11 29.8 1009 6 9.656064 0.001 0.001
3:09 pm 15:09 Cloudy 36 2 32 0 87 87 N 6 9 29.8 1009 8 12.874752 0.001 0.001
3:49 pm 15:49 Mostly Cloudy 36 2 30 -1 81 81 N 8 13 29.8 1009 10 16.09344 0.001 0.001
3:52 pm 15:52 Mostly Cloudy 36 2 30 -1 81 81 N 7 11 29.8 1009 10 16.09344 0.001 0.001
4:05 pm 16:05 Partly Cloudy 36 2 28 -2 75 75 NNW 8 13 29.77 1008 10 16.09344 0 0
4:39 pm 16:39 Mostly Cloudy 36 2 30 -1 81 81 NW 7 11 29.77 1008 10 16.09344 0 0
4:41 pm 16:41 Mostly Cloudy 36 2 30 -1 81 81 NNW 8 13 29.77 1008 10 16.09344 0 0
4:52 pm 16:52 Mostly Cloudy 36 2 30 -1 81 81 NNW 8 13 29.77 1008 10 16.09344 0 0
5:52 pm 17:52 Cloudy 36 2 28 -2 75 75 NNW 9 15 29.8 1009 10 16.09344 0 0
6:52 pm 18:52 Cloudy 36 2 28 -2 75 75 NW 6 9 29.8 1009 10 16.09344 0 0
7:52 pm 19:52 Cloudy 36 2 28 -2 75 75 W 5 7 29.8 1009 10 16.09344 0 0
8:52 pm 20:52 Partly Cloudy 36 2 28 -2 75 75 SW 5 7 29.8 1009 10 16.09344 0 0
9:52 pm 21:52 Mostly Clear 36 2 28 -2 75 75 W 6 9 29.83 1010 10 16.09344 0 0
10:52 pm 22:52 Mostly Clear 34 1 28 -2 81 81 WSW 9 15 29.83 1010 10 16.09344 0 0
11:52 pm 23:52 Mostly Clear 34 1 28 -2 81 81 WSW 7 11 29.83 1010 10 16.09344 0 0

Powered by AerisWeather